[Date Prev][Date Next][Thread Prev][Thread Next] - [Date Index][Thread Index][Author Index]
2 Line ISS Keps 2-17
- Subject: [sarex] 2 Line ISS Keps 2-17
- From: "Dave Larsen PhD" <doc@xxxxxxxxxxx>
- Date: Tue, 17 Feb 2004 01:36:53 -0800
ISS
1 25544U 98067A 04048.31987087 .00017583 00000-0 16536-3 0 2103
2 25544 51.6286 221.1201 0006704 173.9847 254.0956 15.67201121299350
----
Via the sarex mailing list at AMSAT.ORG courtesy of AMSAT-NA.
To unsubscribe, send "unsubscribe sarex" to Majordomo@amsat.org
AMSAT Home